COSMOS 768

Satellite information

Favourite Embed

Satellite Type and Status

PAYLOADIN ORBIT

Key statistics

Satellite COSMOS 768 at a glance.

Uptime

18356

Days in orbit

Revolutions

≈ 12.5

Per day

Orbit

LEO

Low Earth Orbit

Inclination

74.0

Latest

Satellite identification and parameters

Extended collection of information and parameters for COSMOS 768.

Object identification

Identified? True

Debris? False

Object name: COSMOS 768

International designator: 1975-086H

Object number (NORAD): 8292

Object ID (CCSDS): 8292

Country: COMMONWEALTH OF INDEPENDENT STATES (CIS)

Current information (Y/N): Y

RCS size: MEDIUM

Orbital parameters

Period: 115.559 minutes

Inclination: 74.0109 deg

SMA: 7858.935 km

Apoapsis: 1491.32 km

Periapsis: 1470.28 km

RAAN: 352.69 deg

Eccentricy: 0.00133858

Argument of periapsis: 205.8284 deg

Mean anomaly: 165.5257 deg

Mean motion: 12.4611236 rev/day

Mean motion (dot): -0.00000003 rev/day2

B* drag term: 0.000085846039 1/REarth

Two-line elements (TLE)

Creation date: Dec. 18, 2025, 11:20 a.m.

Reference frame: TEME

Reference center: EARTH

Epoch: Dec. 18, 2025, 6:13 a.m. UTC

TLE line 0: 0 COSMOS 768

TLE line 1: 1 08292U 75086H 25352.25956127 -.00000003 00000-0 85846-4 0 9990

TLE line 2: 2 08292 74.0109 352.6900 0013386 205.8284 165.5257 12.46112360285966

Live tracking on map

Real-time ground track for satellite COSMOS 768.

In-orbit conjunctions

There are no conjunctions computed for COSMOS 768, at the moment. Check back to stay up to date, as we update our databases every day.

Go to all conjunctions

Associated space launch

Military communications satellites

COSMOS 768 was lifted into orbit during the mission ‘Kosmos-3M | Strela-1M 97-104’, on board a Kosmos-3M space rocket.

The launch took place on Sept. 17, 1975, 7:10 a.m. from 132/1 (132L).

For more information about the launch, click the button.

Launch to space Kosmos-3M | Strela-1M 97-104
Kosmos-3M | Strela-1M 97-104

Agency: N/A

Status: Launch Successful

Launch date: Sept. 17, 1975, 7:10 a.m. UTC

Rocket: Kosmos-3M

Launch pad: 132/1 (132L)

Location: Plesetsk Cosmodrome, Russian Federation

...

Latest news about this satellite

There are no fresh news available about this satellite. Check back as we update our databases every day.


Newsletter sign-up

Weekly statistics, charts and insights to help you stay on top of the space industry.